Regional Weather Roundup
Issued by NWS

Home | Current Version | Previous Version | Graphics & Text | Print | Product List | Glossary On
Versions: 1 2 3 4 5 6 7 8 9 10 11 12 13 14 15 16 17 18 19 20 21 22 23 24 25 26 27 28 29 30 31 32 33 34 35 36 37 38 39 40 41 42 43 44 45 46 47 48 49 50
304
ASUS45 KBOU 202010
RWRCO

WEATHER ROUNDUP FOR COLORADO
NATIONAL WEATHER SERVICE DENVER/BOULDER CO
100 PM MST SAT JAN 20 2018

NOTE: "FAIR" INDICATES FEW OR NO CLOUDS BELOW 12000 FEET WITH NO
SIGNIFICANT WEATHER AND/OR OBSTRUCTIONS TO VISIBILITY.

COZ001>005-013-030-031-202100-
...NORTHWEST COLORADO...

CITY           SKY/WX    TMP DP  RH WIND       PRES   REMARKS
CRAIG          CLOUDY    33  29  85 E5        29.73F WCI  29
HAYDEN         FAIR     N/A N/A N/A S7        29.74F
MEEKER         CLOUDY    42  32  67 CALM      29.72F
RABBIT EARS PA NOT AVBL
STEAMBOAT SPGS NOT AVBL
WALDEN         NOT AVBL
$$

COZ006>008-011-202100-
...WEST CENTRAL VALLEYS...

CITY           SKY/WX    TMP DP  RH WIND       PRES   REMARKS
GRAND JUNCTION CLOUDY    48  33  56 N6        29.69F
MONTROSE       PTSUNNY   54  23  30 S20G30    29.72F
EAGLE          FAIR      49  25  39 VRB3      29.72F
RIFLE          LGT RAIN  37  34  89 SW3       29.71F
DELTA          PTSUNNY   54  31  41 SW22      29.74R
NUCLA          CLOUDY    50  23  34 SW26G33   29.78F
$$

COZ017>023-064>068-202100-
...SOUTHWEST COLORADO...

CITY           SKY/WX    TMP DP  RH WIND       PRES   REMARKS
DURANGO        CLOUDY    45  18  34 E7        29.86F
CORTEZ         CLOUDY    48  19  31 SE18G25   29.78F
PAGOSA SPRINGS CLOUDY    42  14  31 CALM      29.90F
TELLURIDE      LGT SNOW  35  21  57 S24G33    29.84F WCI  23
WOLF CREEK PAS NOT AVBL
$$

COZ009-010-012-014-032>034-037-058>063-202100-
...CENTRAL COLORADO...

CITY           SKY/WX    TMP DP  RH WIND       PRES   REMARKS
ASPEN          CLOUDY    45  22  40 SW20      29.74F
BUENA VISTA    CLOUDY    45  17  32 SE10G20   29.78F
COPPER MTN     NOT AVBL
BERTHOUD PASS  NOT AVBL
COTTONWOOD PAS NOT AVBL
GUNNISON       PTSUNNY   34  19  54 VRB3      29.83F
KREMMLING      NOT AVBL
LEADVILLE      FAIR      35  17  47 S18G28    29.80F WCI  24
SALIDA         PTSUNNY   52  17  25 SE12G25   29.84F
SUNLIGHT       NOT AVBL
WILKERSON PASS NOT AVBL
$$

COZ069>075-202100-
...SAN LUIS VALLEY/SANGRE DE CRISTO MOUNTAINS...

CITY           SKY/WX    TMP DP  RH WIND       PRES   REMARKS
ALAMOSA        FAIR      52  14  22 W22       29.86F
DEL NORTE      NOT AVBL
LA VETA PASS   NOT AVBL
SAGUACHE       NOT AVBL
$$

COZ035-036-038>040-202100-
...NORTHERN COLORADO FRONT RANGE...

CITY           SKY/WX    TMP DP  RH WIND       PRES   REMARKS
DENVER INTL AP PTSUNNY   45  23  42 N13       29.75F
DMNS CITY PARK NOT AVBL
AURORA         PTSUNNY   47  22  37 N14       29.73F
FRONT RANGE AP PTSUNNY   41  27  56 N12       29.75F
ERIE MUNI ARPT NOT AVBL
BOULDER MUN AP NOT AVBL
CENTENNIAL     FAIR      46  21  37 N12       29.73F
BROOMFIELD     PTSUNNY   45  23  42 N10       29.77F
FORT COLLINS   FAIR      47  29  49 NE10      29.77F
LONGMONT       FAIR      48  26  43 NE7       29.78F
$$

COZ041-046-047-076>085-087-088-202100-
...PIKES PEAK/PALMER DIVIDE AND SOUTHERN FOOTHILLS...

CITY           SKY/WX    TMP DP  RH WIND       PRES   REMARKS
COLO. SPRINGS  PTSUNNY   59  20  22 S7        29.73F
A. F. ACADEMY  FAIR      60  17  18 CALM      29.72F
SCHRIEVER AFB  FAIR      57  16  20 S15       29.73F
CHEYENNE MTN   FAIR      57  16  19 SE16G25   29.69F
ELLICOTT         N/A    N/A N/A N/A SW12      29.72F
FALCON         FAIR      56  14  19 SW20      29.76F
FORT CARSON    FAIR      59  19  21 SW13      29.70F
LIMON          FAIR      64  17  16 SW10G18   29.69F
MONUMENT HILL  NOT AVBL
CANON CITY     SUNNY     66  21  18 S16G30    29.70F
WALSENBURG     FAIR      63  16  16 SW26G35   29.75F
TRINIDAD       FAIR      69  15  12 SW10G24   29.72F
$$

COZ042>045-048>051-090-091-202100-
...NORTHEAST COLORADO...

CITY           SKY/WX    TMP DP  RH WIND       PRES   REMARKS
GREELEY ARPT   FAIR      45  28  51 NE15      29.78F
AKRON          FAIR      43  29  57 NE13      29.73F
BURLINGTON     FAIR      51  29  42 N9        29.72F
WRAY           FAIR      48  30  49 N12       29.76F
YUMA           NOT AVBL
STERLING       NOT AVBL
HOLYOKE        NOT AVBL
FORT MORGAN    FAIR      42  26  54 NE18      29.75F
$$

COZ086-089-092>099-202100-
...SOUTHEAST COLORADO...

CITY           SKY/WX    TMP DP  RH WIND       PRES   REMARKS
PUEBLO         FAIR      68  19  15 W5        29.66F
LA JUNTA       FAIR      73  23  15 W16G24    29.66F
LAMAR          FAIR      71  23  16 VRB5      29.66F
SPRINGFIELD      N/A     72  20  14 SE17      29.69F
$$




USA.gov is the U.S. government's official web portal to all federal, state and local government web resources and services.